Location: Cieszkowy
(50.3290°N, 20.5336°E)
Time: 23:57:58
(UTC+00:00)

Cosmos 1892 Rocket - Pass Details

Date: 15 June 2024
Orbit: 603 x 629 km, 82.5° (Epoch: 18 July)

Event Time Altitude Azimuth Distance (km) Brightness Sun altitude
Exits shadow 01:36:54 - 186° (S) 2,583 6.2 -6.5°
Reaches altitude 10° 01:38:23 10° 186° (S) 1,980 5.7 -6.3°
Maximum altitude 01:42:46 84° 99° (E) 633 3.7 -5.8°
Drops below altitude 10° 01:47:15 10° 11° (NNE) 2,012 7.3 -5.4°
Sets 01:49:30 0° 11° (N) 2,927 8.1 -5.1°
